Regional Weather Roundup
Issued by NWS Raleigh/Durham, NC

Current Version | Previous Version | Text Only | Print | Product List | Glossary On
Versions: 1 2 3 4 5 6 7 8 9 10 11 12 13 14 15 16 17 18 19 20 21 22 23 24 25 26 27 28 29 30 31 32 33 34 35 36 37 38 39 40 41 42 43 44 45 46 47 48 49 50
000 ASUS42 KRAH 281210 RWRRAH NORTH CAROLINA WEATHER ROUNDUP NATIONAL WEATHER SERVICE RALEIGH NC 800 AM EDT THU JUL 28 2016 NOTE: "FAIR" INDICATES FEW OR NO CLOUDS BELOW 12,000 FEET WITH NO SIGNIFICANT WEATHER AND/OR OBSTRUCTIONS TO VISIBILITY. NCZ001-053-055-056-065-067-281300- WESTERN NORTH CAROLINA CITY SKY/WX TMP DP RH WIND PRES REMARKS ASHEVILLE SUNNY 71 66 84 CALM 30.08R JEFFERSON MOSUNNY 69 65 86 NW6 30.10S HICKORY SUNNY 75 72 90 CALM 30.00R RUTHERFORDTON N/A 75 73 95 CALM 30.01R MOUNT AIRY SUNNY 75 72 91 CALM 30.00S BOONE SUNNY 71 67 88 W7 30.11S $$ NCZ021-022-025-041-071-084-088-281300- CENTRAL NORTH CAROLINA CITY SKY/WX TMP DP RH WIND PRES REMARKS CHARLOTTE MOSUNNY 79 69 71 W6 29.98S GREENSBORO PTSUNNY 77 72 84 CALM 29.96S WINSTON-SALEM SUNNY 78 71 79 CALM 29.97F RALEIGH-DURHAM MOSUNNY 78 73 84 CALM 29.95R FORT BRAGG SUNNY 82 73 73 VRB6 29.94R FAYETTEVILLE SUNNY 83 73 72 SW10 29.95R BURLINGTON SUNNY 76 73 91 CALM 29.96R LAURINBURG SUNNY 82 73 74 SW7 29.96S $$ NCZ011-015-027-028-043-044-047-080-103-281300- NORTHEASTERN NORTH CAROLINA CITY SKY/WX TMP DP RH WIND PRES REMARKS ROCKY MT-WILSO SUNNY 80 77 90 CALM 29.94R GREENVILLE SUNNY 82 77 83 CALM 29.96R WASHINGTON SUNNY 80 76 88 SW6 29.94R ELIZABETH CITY MOSUNNY 81 76 84 SW3 29.93R MANTEO NOT AVBL CAPE HATTERAS PTSUNNY 82 78 88 S3 29.95S $$ NCZ078-087-090-091-093-098-101-281300- SOUTHEASTERN NORTH CAROLINA CITY SKY/WX TMP DP RH WIND PRES REMARKS LUMBERTON SUNNY 81 73 76 SW9 29.95R GOLDSBORO SUNNY 83 79 89 SW9 29.93R KINSTON SUNNY 82 75 78 SW6 29.94R KENANSVILLE NOT AVBL NEW BERN SUNNY 82 76 81 SW6 29.95R CHERRY POINT SUNNY 82 77 84 SW8 29.95R BEAUFORT SUNNY 83 80 91 SW10 N/A HX 95 JACKSONVILLE SUNNY 82 76 81 W10 29.94R WILMINGTON SUNNY 84 76 76 W8 29.96S $$

USA.gov is the U.S. government's official web portal to all federal, state and local government web resources and services.